National Weather Service Raw Text Product

Displaying AFOS PIL: RWRIA Received: 2018-07-12 18:00 UTC


311 
ASUS43 KDMX 121806
RWRIA 

WEATHER ROUNDUP FOR IOWA
NATIONAL WEATHER SERVICE DES MOINES IA
100 PM CDT THU JUL 12 2018

NOTE: "FAIR" INDICATES FEW OR NO CLOUDS BELOW 12,000 FEET WITH NO
SIGNIFICANT WEATHER AND/OR OBSTRUCTIONS TO VISIBILITY.

* - THESE STATIONS ARE NOT NWS STATIONS...THUS NOT UNDER NWS
QUALITY CONTROL.  THEY ALSO DO NOT REPORT WEATHER SUCH 
AS PRECIPITATION OR FOG.  

IAZ001>003-012>014-020>022-031>034-043>046-121900-
   NORTHWEST IOWA
  
CITY           SKY/WX    TMP DP  RH WIND       PRES   REMARKS
CARROLL *      SUNNY     90  77  66 SW14      30.05F HX 102           
CHEROKEE *     SUNNY     90  75  62 SW14      30.03S HX 100           
DENISON *      SUNNY     90  73  58 SW12G18   30.07S HX  98           
LE MARS *      SUNNY     91  77  62 S9G16     30.01S HX 105           
ORANGE CITY *  SUNNY     91  73  55 SW14      30.02F HX 100           
SHELDON *      MOSUNNY   90  75  62 SW10G17   30.01S HX 100           
SIOUX CITY     PTSUNNY   91  75  59 SW10      30.02R HX 101           
6HR MIN TEMP:  75; 6HR MAX TEMP:  92;                                

STORM LAKE *   SUNNY     88  75  66 SW12G18   30.05S HX  97           
$$
 
IAZ055>058-069>071-079>083-090>094-121900-
   SOUTHWEST IOWA
  
CITY           SKY/WX    TMP DP  RH WIND       PRES   REMARKS
ATLANTIC *     SUNNY     91  75  59 S13       30.06F HX 102           
AUDUBON *      SUNNY     91  79  66 S10       30.08F HX 107           
CLARINDA *     SUNNY     93  75  55 S8        30.08F HX 104           
COUNCIL BLFS * SUNNY     91  75  59 S9G17     30.06S HX 102           
CRESTON *      SUNNY     91  73  55 S10       30.10F HX 100           
HARLAN  *        N/A     90  77  66 S8        30.06F HX 102           
LAMONI         SUNNY     94  72  48 S8        30.09F HX 102           
6HR MIN TEMP:  73; 6HR MAX TEMP:  94;                                

RED OAK *      SUNNY     93  77  59 MISG      30.07S HX 107           
SHENANDOAH *   SUNNY     93  77  59 S6        30.06F HX 107           
$$
 
IAZ047>049-059>061-072>074-084-121900-
   CENTRAL IOWA
  
CITY           SKY/WX    TMP DP  RH WIND       PRES   REMARKS
AMES           MOSUNNY   90  74  59 S10       30.06F HX  99           
6HR MIN TEMP:  70; 6HR MAX TEMP:  90;                                

ANKENY *       CLOUDY    91  73  55 S8        30.08S HX 100           
BOONE *        SUNNY     90  77  66 VRB7G14   30.06F HX 102           
CHARITON *     SUNNY     91  73  55 S10       30.09F HX 100           
DES MOINES     CLOUDY    91  74  57 S10       30.06F HX 100           
6HR MIN TEMP:  73; 6HR MAX TEMP:  91;                                

GRINNELL*      CLOUDY    88  73  60 S8        30.10F HX  96           
KNOXVILLE *    CLOUDY    90  75  62 S9G15     30.07F HX 100           
MARSHALLTOWN   SUNNY     89  77  67 S9        30.07F HX 101           
6HR MIN TEMP:  71; 6HR MAX TEMP:  90;                                

NEWTON *       MOSUNNY   88  75  66 S10       30.09S HX  97           
PELLA *        CLOUDY    91  73  56 S7        30.09F HX  99           
PERRY *        FAIR      91  78  65 MISG      30.06F HX 105           
$$
 
IAZ004>006-015-016-023>025-035-036-121900-
   NORTH CENTRAL IOWA
  
CITY           SKY/WX    TMP DP  RH WIND       PRES   REMARKS
ALGONA *       SUNNY     91  75  59 SW12      30.03F HX 102           
CLARION *      SUNNY     90  75  62 SW13      30.05F HX 100           
ESTHERVILLE    SUNNY     92  75  57 SW16G23   30.01F HX 103           
6HR MIN TEMP:  73; 6HR MAX TEMP:  92;                                

FORT DODGE *   MOSUNNY   91  77  63 SW13      30.05F HX 104           
MASON CITY     CLOUDY    90  76  63 S12       30.06S HX 101           
6HR MIN TEMP:  71; 6HR MAX TEMP:  91;                                

FOREST CITY *  FAIR      90  75  62 SW10      30.04S HX 100           
WEBSTER CITY * SUNNY     90  75  62 S10G16    30.03F HX 100           
IOWA FALLS *   FAIR      89  75  63 S10       30.08F HX  99           
$$

IAZ007>011-017>019-026>030-037>042-050>054-066-121900-
   NORTHEAST IOWA
  
CITY           SKY/WX    TMP DP  RH WIND       PRES   REMARKS
CEDAR RAPIDS   FAIR      87  73  62 S8        30.10F HX  94           
6HR MIN TEMP:  71; 6HR MAX TEMP:  87;                                

CHARLES CITY * FAIR      86  73  66 S12G17    30.06F HX  93           
CLINTON *      FAIR      85  72  65 S10       30.14F HX  91           
DECORAH *      FAIR      82  73  74 VRB7G16   30.06F HX  88           
DUBUQUE        FAIR      84  70  62 S12       30.13F HX  88           
6HR MIN TEMP:  69; 6HR MAX TEMP:  84;                                

MONTICELLO *   FAIR      86  73  66 S12       30.10F HX  93           
OELWEIN *      FAIR      86  75  70 S10       30.09F HX  95           
WATERLOO       FAIR      89  75  63 S13G22    30.06F HX  99           
6HR MIN TEMP:  69; 6HR MAX TEMP:  89;                                

$$
 
IAZ064-065-067-068-078-121900-
   EAST CENTRAL IOWA
  
CITY           SKY/WX    TMP DP  RH WIND       PRES   REMARKS
DAVENPORT      FAIR      85  69  58 SW13G18   30.15F HX  89           
6HR MIN TEMP:  72; 6HR MAX TEMP:  85;                                

IOWA CITY      FAIR      90  71  53 S8        30.12F HX  96           
6HR MIN TEMP:  69; 6HR MAX TEMP:  90;                                

MT. PLEASANT * CLOUDY    88  70  55 S6        30.13S HX  92           
MUSCATINE *    FAIR      88  72  58 SE14      30.12S HX  94           
QUAD CITIES    FAIR      87  71  58 S8G20     30.13F HX  93           
6HR MIN TEMP:  70; 6HR MAX TEMP:  87;                                

$$
 
IAZ062-063-075>077-085>089-095>099-121900-
   SOUTHEAST IOWA
  
CITY           SKY/WX    TMP DP  RH WIND       PRES   REMARKS
BURLINGTON     SUNNY     86  71  60 SE9       30.13F HX  91           
6HR MIN TEMP:  73; 6HR MAX TEMP:  87;                                

FAIRFIELD *    CLOUDY    90  70  51 SE8       30.11S HX  95           
FORT MADISON * SUNNY     88  73  62 S8        30.13F HX  96           
KEOKUK *       SUNNY     90  70  51 S9        30.11F HX  95           
OSKALOOSA *    FAIR      90  72  56 S7        30.10S HX  97           
CENTERVILLE *  FAIR      95  70  43 CALM      30.11F HX 101           
OTTUMWA        CLOUDY    92  71  50 MISG      30.09F HX  98           
6HR MIN TEMP:  73; 6HR MAX TEMP:  92;                                

WASHINGTON *   CLOUDY    88  75  66 S8G14     30.12F HX  97           
$$

ABBREVIATIONS USED IN REMARKS
   TC - TEMPERATURES IN CELSIUS
  WCI - WIND CHILL INDEX
   HX - HEAT INDEX
  VSB - VISIBILITY  
$$

  

100 
ASUS43 KDMX 121801
RWRIA 

WEATHER ROUNDUP FOR IOWA
NATIONAL WEATHER SERVICE DES MOINES IA
100 PM CDT THU JUL 12 2018

NOTE: "FAIR" INDICATES FEW OR NO CLOUDS BELOW 12,000 FEET WITH NO
SIGNIFICANT WEATHER AND/OR OBSTRUCTIONS TO VISIBILITY.

* - THESE STATIONS ARE NOT NWS STATIONS...THUS NOT UNDER NWS
QUALITY CONTROL.  THEY ALSO DO NOT REPORT WEATHER SUCH 
AS PRECIPITATION OR FOG.  

IAZ001>003-012>014-020>022-031>034-043>046-121900-
   NORTHWEST IOWA
  
CITY           SKY/WX    TMP DP  RH WIND       PRES   REMARKS
CARROLL *      SUNNY     90  77  66 SW14      30.05F HX 102           
CHEROKEE *     SUNNY     90  75  62 SW14      30.03S HX 100           
DENISON *      SUNNY     90  73  58 SW12G18   30.07S HX  98           
LE MARS *      SUNNY     91  77  62 S9G16     30.01S HX 105           
ORANGE CITY *  SUNNY     91  73  55 SW14      30.02F HX 100           
SHELDON *      MOSUNNY   90  75  62 SW10G17   30.01S HX 100           
SIOUX CITY     PTSUNNY   91  75  59 SW10      30.02R HX 101           
6HR MIN TEMP:  75; 6HR MAX TEMP:  92;                                

STORM LAKE *   SUNNY     88  75  66 SW12G18   30.05S HX  97           
$$
 
IAZ055>058-069>071-079>083-090>094-121900-
   SOUTHWEST IOWA
  
CITY           SKY/WX    TMP DP  RH WIND       PRES   REMARKS
ATLANTIC *     SUNNY     91  75  59 S13       30.06F HX 102           
AUDUBON *      SUNNY     91  79  66 S10       30.08F HX 107           
CLARINDA *     SUNNY     93  75  55 S8        30.08F HX 104           
COUNCIL BLFS * SUNNY     91  75  59 S9G17     30.06S HX 102           
CRESTON *      SUNNY     91  73  55 S10       30.10F HX 100           
HARLAN  *        N/A     90  77  66 S8        30.06F HX 102           
LAMONI         SUNNY     94  72  48 S8        30.09F HX 102           
6HR MIN TEMP:  73; 6HR MAX TEMP:  94;                                

RED OAK *      SUNNY     93  77  59 MISG      30.07S HX 107           
SHENANDOAH *   SUNNY     93  77  59 S6        30.06F HX 107           
$$
 
IAZ047>049-059>061-072>074-084-121900-
   CENTRAL IOWA
  
CITY           SKY/WX    TMP DP  RH WIND       PRES   REMARKS
AMES           MOSUNNY   90  74  59 S10       30.06F HX  99           
6HR MIN TEMP:  70; 6HR MAX TEMP:  90;                                

ANKENY *       CLOUDY    91  73  55 S8        30.08S HX 100           
BOONE *        SUNNY     90  77  66 VRB7G14   30.06F HX 102           
CHARITON *     SUNNY     91  73  55 S10       30.09F HX 100           
DES MOINES     CLOUDY    91  74  57 S10       30.06F HX 100           
6HR MIN TEMP:  73; 6HR MAX TEMP:  91;                                

GRINNELL*      CLOUDY    88  73  60 S8        30.10F HX  96           
KNOXVILLE *    CLOUDY    90  75  62 S9G15     30.07F HX 100           
MARSHALLTOWN   SUNNY     89  77  67 S9        30.07F HX 101           
6HR MIN TEMP:  71; 6HR MAX TEMP:  90;                                

NEWTON *       MOSUNNY   88  75  66 S10       30.09S HX  97           
PELLA *        CLOUDY    91  73  56 S7        30.09F HX  99           
PERRY *        FAIR      91  78  65 MISG      30.06F HX 105           
$$
 
IAZ004>006-015-016-023>025-035-036-121900-
   NORTH CENTRAL IOWA
  
CITY           SKY/WX    TMP DP  RH WIND       PRES   REMARKS
ALGONA *       SUNNY     91  75  59 SW12      30.03F HX 102           
CLARION *      SUNNY     90  75  62 SW13      30.05F HX 100           
ESTHERVILLE    SUNNY     92  75  57 SW16G23   30.01F HX 103           
6HR MIN TEMP:  73; 6HR MAX TEMP:  92;                                

FORT DODGE *   MOSUNNY   91  77  63 SW13      30.05F HX 104           
MASON CITY     CLOUDY    90  76  63 S12       30.06S HX 101           
6HR MIN TEMP:  71; 6HR MAX TEMP:  91;                                

FOREST CITY *  FAIR      90  75  62 SW10      30.04S HX 100           
IOWA FALLS *   FAIR      89  75  63 S10       30.08F HX  99           
$$

IAZ007>011-017>019-026>030-037>042-050>054-066-121900-
   NORTHEAST IOWA
  
CITY           SKY/WX    TMP DP  RH WIND       PRES   REMARKS
CEDAR RAPIDS   FAIR      87  73  62 S8        30.10F HX  94           
6HR MIN TEMP:  71; 6HR MAX TEMP:  87;                                

CHARLES CITY * FAIR      86  73  66 S12G17    30.06F HX  93           
CLINTON *      FAIR      85  72  65 S10       30.14F HX  91           
DECORAH *      FAIR      82  73  74 VRB7G16   30.06F HX  88           
DUBUQUE        FAIR      84  70  62 S12       30.13F HX  88           
6HR MIN TEMP:  69; 6HR MAX TEMP:  84;                                

MONTICELLO *   FAIR      86  73  66 S12       30.10F HX  93           
OELWEIN *      FAIR      86  75  70 S10       30.09F HX  95           
WATERLOO       FAIR      89  75  63 S13G22    30.06F HX  99           
6HR MIN TEMP:  69; 6HR MAX TEMP:  89;                                

$$
 
IAZ064-065-067-068-078-121900-
   EAST CENTRAL IOWA
  
CITY           SKY/WX    TMP DP  RH WIND       PRES   REMARKS
DAVENPORT      FAIR      85  69  58 SW13G18   30.15F HX  89           
6HR MIN TEMP:  72; 6HR MAX TEMP:  85;                                

IOWA CITY      FAIR      90  71  53 S8        30.12F HX  96           
6HR MIN TEMP:  69; 6HR MAX TEMP:  90;                                

MUSCATINE *    FAIR      88  72  58 SE14      30.12S HX  94           
QUAD CITIES    FAIR      87  71  58 S8G20     30.13F HX  93           
6HR MIN TEMP:  70; 6HR MAX TEMP:  87;                                

$$
 
IAZ062-063-075>077-085>089-095>099-121900-
   SOUTHEAST IOWA
  
CITY           SKY/WX    TMP DP  RH WIND       PRES   REMARKS
BURLINGTON     SUNNY     86  71  60 SE9       30.13F HX  91           
6HR MIN TEMP:  73; 6HR MAX TEMP:  87;                                

FAIRFIELD *    CLOUDY    90  70  51 SE8       30.11S HX  95           
FORT MADISON * SUNNY     88  73  62 S8        30.13F HX  96           
KEOKUK *       SUNNY     90  70  51 S9        30.11F HX  95           
OSKALOOSA *    FAIR      90  72  56 S7        30.10S HX  97           
CENTERVILLE *  FAIR      95  70  43 CALM      30.11F HX 101           
OTTUMWA        CLOUDY    92  71  50 MISG      30.09F HX  98           
6HR MIN TEMP:  73; 6HR MAX TEMP:  92;                                

WASHINGTON *   CLOUDY    88  75  66 S8G14     30.12F HX  97           
$$

ABBREVIATIONS USED IN REMARKS
   TC - TEMPERATURES IN CELSIUS
  WCI - WIND CHILL INDEX
   HX - HEAT INDEX
  VSB - VISIBILITY  
$$